Погода в Пембе

Россия / Республика Марий Эл     56°30′52″N   48°03′10″E
темп.,
°C
ветер,
м/с
пор.,
м/с
влажн.,
%
обл.,
%
осадки,
мм/ч
давл.,
гПа
погр.,
м
28 сентября, вт
вт2800:00+3всв4118711 0.0 1024696
03:00+1св411904 0.0 1026352
06:000св39922 0.0 1027269
09:00+5св487031 0.0 1028560
12:00+8св575066 0.0 10281198
15:00+9св46485 0.0 10281275
18:00+4ссв36715 0.0 1030110
21:00+3ссв2577100 0.0 1031108
29 сентября, ср
ср2900:00+2ссв248180 0.0 103176
03:00+1с248542 0.0 103282
06:000с248921 0.0 103265
09:00+5с2465100 0.0 1032374
12:00+9с345093 0.0 10311024
15:00+9с345083 0.0 10301263
18:00+5с257585 0.0 103193
21:00+6сз257392 0.0 1031158
30 сентября, чт
чт3000:00+5с248786 0.0 1031110
03:00+6ссз239098 0.1 1031128
06:00+4сз239693 0.1 103179
09:00+8сз247889 0.1 1031426
12:00+10ссз4567100 0.1 10301121
15:00+7зсз3784100 0.1 1030381
18:00+7зсз288785 0.0 1030402
21:00+8з2688100 0.0 1029198
1 октября, пт
пт100:00+7зсз25965 0.0 1029117
03:00+5сз23965 0.0 102966
06:00+4сз25967 0.0 103095
09:00+9ссз347647 0.0 1030384
12:00+13ссз346292 0.0 1030851
15:00+14сз355691 0.0 10301079
18:00+9ссз227918 0.0 103021
21:00+7с22895 0.0 103112
2 октября, сб
сб200:00+6ссз119266 0.0 103210
03:00+5сз119366 0.0 103210
06:00+5сз119397 0.0 103210
09:00+10сз127493 0.0 1032261
12:00+11сз1275100 0.0 1032274
15:00+12зсз2375100 0.0 1032393
18:00+9зсз119010 0.0 103311
21:00+9зюз119099 0.0 103314